Regional Weather Roundup
Issued by NWS

Home | Current Version | Previous Version | Graphics & Text | Print | Product List | Glossary On
Versions: 1 2 3 4 5 6 7 8 9 10 11 12 13 14 15 16 17 18 19 20 21 22 23 24 25 26 27 28 29 30 31 32 33 34 35 36 37 38 39 40 41 42 43 44 45 46 47 48 49 50
000
ASUS43 KLOT 300606
RWRIL

ILLINOIS REGIONAL WEATHER ROUNDUP
NATIONAL WEATHER SERVICE CHICAGO/ROMEOVILLE IL
100 AM CDT TUE SEP 30 2014

NOTE: "FAIR" INDICATES FEW OR NO CLOUDS BELOW 12,000 FEET WITH NO
SIGNIFICANT WEATHER AND/OR OBSTRUCTIONS TO VISIBILITY.

* THESE STATIONS ARE NOT UNDER NWS QUALITY CONTROL. THEY ALSO MAY NOT
  REPORT WEATHER SUCH AS PRECIPITATION OR FOG.

ILZ001-002-007-009-015-016-024-300700-
NORTHWEST ILLINOIS

CITY           SKY/WX    TMP DP  RH WIND       PRES   REMARKS
MOLINE         NOT AVBL
SAVANNA*       CLOUDY    55  49  78 NE8       30.03R
$$

ILZ003-004-008-010-011-017-018-300700-
NORTH CENTRAL ILLINOIS

CITY           SKY/WX    TMP DP  RH WIND       PRES   REMARKS
ROCKFORD       CLOUDY    53  47  79 E9        30.05R
6HR MIN TEMP:  53; 6HR MAX TEMP:  72;

FREEPORT*      CLOUDY    52  48  86 NE9       30.05S
ROCHELLE*      CLOUDY    53  49  85 NE12      30.04R
DE KALB*       CLOUDY    51  48  90 NE10      30.03S
PERU*          CLOUDY    58  54  86 NE8G16    30.00S
$$

ILZ005-006-012>014-019>023-300700-
NORTHEAST ILLINOIS

CITY           SKY/WX    TMP DP  RH WIND       PRES   REMARKS
CHICAGO-OHARE  CLOUDY    54  49  83 NE13      30.02R
6HR MIN TEMP:  54; 6HR MAX TEMP:  60; 6HR PCP:  0.01;

CHICAGO-MIDWAY CLOUDY    57  52  83 N17       30.01R
6HR MIN TEMP:  57; 6HR MAX TEMP:  65; 6HR PCP: TRACE;

AURORA         CLOUDY    55  50  83 NE10      30.01S
6HR MIN TEMP:  55; 6HR MAX TEMP:  64;

LANSING*       CLOUDY    56  52  85 N14G24    30.00R
JOLIET*        CLOUDY    56  51  84 NE14G20   30.00S
WAUKEGAN       NOT AVBL
DUPAGE AIRPORT CLOUDY    54  50  86 NE14      30.01S
6HR MIN TEMP:  54; 6HR MAX TEMP:  69; 6HR PCP: TRACE;

KANKAKEE*      CLOUDY    58  55  88 NE8       29.99S
WHEELING       CLOUDY    55  48  77 N15       30.04R
6HR MIN TEMP:  55; 6HR MAX TEMP:  59;

MORRIS*        CLOUDY    57  54  88 NE5       29.99S
ROMEOVILLE*    CLOUDY    55  51  85 NE13      30.01R
NORTHERLY ISL    N/A     55  50  83 N16         N/A
$$

LMZ740>746-300700-
SOUTHERN LAKE MICHIGAN

STATION/POSITION SKY/WX   TEMP    WIND        PRES    VSBY  WAVE
                          AIR SEA DIR/SP/G                  HT/PER
                          (F)     (DEG/KT/KT) (MB)    (MI)  (FT/S)
SOUTHERN BUOY              53 62  350/ 19/ 25 1016.2R         7/ 7
WAUKEGAN HARBOR                    20/ 21/ 25   N/A
HARRISON CRIB              55      10/ 21/ 25   N/A
BURNHAM HARBOR             55     360/ 16/ 21   N/A
CALUMET HARBOR             56     360/ 11/ 19 1015.2R
MICHIGAN CITY              55     350/ 24/ 28   N/A
MICHIGAN CITY 6N           56 65   20/ 17/ 25   N/A           9/ 2
ST. JOSEPH                 56 63   10/ 17/ 23   N/A           8/ 2
$$

ILZ025>027-034>036-040-047-049-050-058-095>099-300700-
WEST-CENTRAL ILLINOIS

CITY           SKY/WX    TMP DP  RH WIND       PRES   REMARKS
QUINCY         CLEAR     64  57  78 S6        29.95S
GALESBURG*     CLEAR     60  57  89 NE10      29.96S
MACOMB*        CLEAR     59  56  92 W5        29.96F
JACKSONVILLE*  CLEAR     63  58  84 CALM      29.96S
PITTSFIELD*    CLEAR     60  56  87 CALM      29.96S
$$

ILZ028>032-037-038-041>044-048-051>054-059>061-300700-
CENTRAL ILLINOIS

CITY           SKY/WX    TMP DP  RH WIND       PRES   REMARKS
PONTIAC        CLOUDY    61  57  88 NE9       29.98S
DECATUR        CLEAR     61  57  87 CALM      29.95S
PEORIA         CLEAR     65  59  81 NE13      29.95R
6HR MIN TEMP:  63; 6HR MAX TEMP:  75;

LACON*         CLOUDY    58  55  88 NE6       29.98S
LINCOLN*       CLEAR     60  57  88 CALM      29.92S
SPRINGFIELD    CLEAR     60  56  86 SW3       29.95S
6HR MIN TEMP:  59; 6HR MAX TEMP:  75;

TAYLORVILLE    CLEAR     57  55  94 CALM      29.95S
$$

ILZ033-039-045-046-055>057-062-063-300700-
EAST-CENTRAL ILLINOIS

CITY           SKY/WX    TMP DP  RH WIND       PRES   REMARKS
CHAMPAIGN      CLEAR     59  55  88 SW6       29.94F
DANVILLE*      MOCLDY    59  58  96 NE8       29.93R FOG
RANTOUL*       MOCLDY    62  59  88 NE13      29.96S FOG
MATTOON        CLEAR     60  56  86 CALM      29.94S
PARIS*         MOCLDY    57  56  97 CALM      29.95S
$$

ILZ079-100>102-300700-
SOUTHWEST ILLINOIS

CITY           SKY/WX    TMP DP  RH WIND       PRES   REMARKS
ALTON          CLEAR     60  57  92 CALM      29.96S
BELLEVILLE     CLEAR     61  61 100 CALM      29.95S
CAHOKIA*       CLEAR     59  57  93 CALM      29.95S FOG
SPARTA*        CLEAR     60  56  88 CALM      29.96F
$$

ILZ064>066-069>071-074>076-080>082-084>086-088>090-092>094-300700-
SOUTH-CENTRAL ILLINOIS

CITY           SKY/WX    TMP DP  RH WIND       PRES   REMARKS
CARBONDALE     CLEAR     57  55  93 CALM      29.96S
6HR MIN TEMP:  57; 6HR MAX TEMP:  69;

CAIRO*         CLEAR     58  56  91 CALM      29.95S FOG
EFFINGHAM*     CLEAR     58  55  89 CALM      29.95S
MARION         CLEAR     61  59  94 CALM      29.96F
CENTRALIA*     CLEAR     59  55  85 CALM      29.95F
SALEM*         CLEAR     59  57  93 CALM      29.96S
METROPOLIS*    CLEAR     57  57 100 CALM      29.94F
$$

ILZ067-068-072-073-078-083-087-091-300700-
SOUTHEAST ILLINOIS

CITY           SKY/WX    TMP DP  RH WIND       PRES   REMARKS
LAWRENCEVILLE  CLEAR     58  57  97 CALM      29.95S FOG
FLORA*         CLEAR     57  55  93 CALM      29.96S
FAIRFIELD*     CLEAR     57  55  94 CALM      29.95S
HARRISBURG*    CLEAR     58  58 100 CALM      29.96F FOG
ROBINSON*      CLEAR     56  56  97 CALM      29.95S
CARMI*         CLEAR     58  57  98 CALM      29.94F
$$

ABBREVIATIONS USED IN REMARKS
   TC - TEMPERATURE IN CELSIUS
  WCI - WIND CHILL INDEX
   HX - HEAT INDEX
  VSB - VISIBILITY
$$




USA.gov is the U.S. government's official web portal to all federal, state and local government web resources and services.